Terug naar catalogus

CZ-6A DEB

ActiefPO
NORAD 61403·DEBRIS·🇨🇳 China

Gelanceerd Aug 6, 2024 vanaf Taiyuan Satellite Launch Center

Loading…

Volgende Passages (komende 24 uur)

TLE

VersSource: Space-Track

Epoch: Sep 14, 2026, 11:25 UTC

1 61403U 24140XU  26257.47599021  .00001528  00000-0  62041-3 0  9996
2 61403  88.9456 259.2115 0030377 241.1541 118.6603 14.26936775104717

Volg CZ-6A DEB in realtime met AllMySat

Download on the App Store